SCP
0 0 0 0 0 0 0 0 0 0 0 0 0 0 1 1 1 0 0 0 0 0 0 0 0 0 0 0 0 0 0 0 0 0 1 1 1 1
0 0 0 0 0 0 0 0 0 0 0 0 0 1 1 1 0 0 0 0 0 0 0 0 0 0 0 0 0 0 0 0 0 0 0 0 0 1
0 0 0 0 0 0 0 0 0 0 0 0 0 1 1 1 0 0 0 0 0 0 0 0 0 0 0 0 0 0 0 0 0 0 0 0 0 0
0 0 0 0 0 0 0 0 0 0 0 0 0 0 1 0 0 0 0 0 0 0 0 0 0 0 0 0 0 0 0 0 0 0 0 0 0 0
0 0 0 0 0 0 0 0 0 0 0 0 1 0 0 0 0 0 0 0 0 0 0 0 0 0 0 0 0 0 0 0 0 0 0 0 0 0
0 0 0 0 0 0 0 0 0 0 0 1 1 0 0 0 0 0 0 0 0 0 0 0 0 0 0 0 0 0 0 0 0 0 0 0 0 0
0 0 0 0 0 0 0 0 0 0 0 1 1 0 0 0 0 0 0 0 0 0 0 0 0 0 0 0 0 0 0 0 0 0 0 0 0 0
0 0 0 0 0 0 0 0 0 0 0 0 0 0 0 0 0 0 0 0 0 0 0 0 0 0 0 0 0 0 0 0 0 0 0 0 0 0
0 0 0 0 0 0 0 0 0 0 0 0 0 0 0 0 0 0 0 0 0 0 0 0 0 0 0 0 0 0 0 0 0 0 0 0 0 0
0 0 0 0 0 0 0 0 0 0 0 0 0 0 0 0 0 0 0 0 0 0 0 0 0 0 0 0 0 0 0 0 0 0 0 0 0 0
0 0 0 0 0 0 0 0 0 0 0 0 0 0 0 0 0 0 0 0 0 0 0 0 0 0 0 0 0 0 0 0 0 0 0 0 0 0
0 0 0 0 0 0 0 0 0 0 0 0 0 0 0 0 0 0 0 0 0 0 0 0 0 0 0 0 0 0 0 0 0 0 0 0 0 0
0 0 0 0 0 0 0 0 0 0 0 0 0 0 0 0 0 0 0 0 0 0 0 0 0 0 0 0 0 0 0 0 0 0 0 0 0 0
0 0 0 0 0 0 0 0 0 0 0 0 0 0 0 0 0 0 0 0 0 0 0 0 0 0 0 0 0 0 0 0 0 0 0 0 0 0
0 0 0 0 0 0 0 0 0 0 0 0 0 0 0 0 0 0 0 0 0 0 0 0 0 0 0 0 0 0 0 0 0 0 0 0 0 0
0 0 0 0 0 0 0 0 0 0 0 0 0 0 0 0 0 0 0 0 0 0 0 0 0 0 0 0 0 0 0 0 0 0 0 0 0 0
0 0 0 0 0 0 0 0 0 0 0 0 0 0 0 0 0 0 0 0 0 0 0 0 0 0 0 0 0 0 0 0 0 0 0 0 0 0
0 0 0 0 0 0 0 0 0 0 0 0 0 0 0 0 0 0 0 0 0 0 0 0 0 0 0 0 0 0 0 0 0 0 0 0 0 0
0 0 0 0 0 0 0 0 0 0 0 0 0 0 0 0 0 0 0 0 0 0 0 0 0 0 0 0 0 0 0 0 0 0 0 0 0 0
0 0 0 0 0 0 0 0 0 0 0 0 0 0 0 0 0 0 0 0 0 0 0 0 0 0 0 0 0 0 0 0 0 0 0 0 0 0
0 0 0 0 0 0 0 0 0 0 0 0 0 0 0 0 0 0 0 0 0 0 0 0 0 0 0 0 0 0 0 0 0 0 0 0 0 0
0 0 0 0 0 0 0 0 0 0 0 0 0 0 1 1 0 0 0 0 0 0 0 0 0 0 0 0 0 0 0 0 0 0 0 0 0 0
0 0 0 0 0 0 0 0 0 0 0 0 0 0 1 1 0 0 0 0 0 0 0 0 0 0 0 0 0 0 0 0 0 0 0 0 0 0
Wind_Speed
3 3 2 1 1 1 1 2 3 2 2 2 1 2 3 3 7 5 5 10 11 11 11 11 11 10 10 11 11 11 11 11 12 12 13 14 16 17
2 2 2 1 1 2 2 2 2 3 2 2 2 1 2 4 6 5 5 10 10 10 10 10 9 9 9 9 9 9 9 9 10 10 11 12 13 14
3 3 3 2 2 2 2 2 2 3 3 2 1 1 2 4 4 4 4 4 4 8 9 8 8 7 7 8 8 8 8 9 9 9 10 10 11 12
4 3 4 3 3 2 2 3 3 3 3 3 1 1 2 4 5 5 4 4 3 6 7 7 7 6 6 6 6 6 7 7 8 8 9 9 10 10
5 5 5 4 4 2 3 3 3 3 3 3 2 1 1 3 3 3 3 2 3 4 6 5 6 5 5 5 5 4 4 5 6 6 7 7 8 9
5 5 6 6 6 5 4 4 3 3 3 3 2 2 2 2 3 3 3 2 2 3 3 4 5 5 4 4 4 4 4 4 4 4 5 6 6 7
4 5 6 8 8 6 4 4 4 3 2 3 3 2 3 4 4 3 4 3 1 2 3 2 2 2 2 2 3 3 3 3 3 3 4 5 5 5
5 5 5 6 8 8 8 8 7 6 4 4 3 4 4 5 4 5 4 4 3 3 3 2 2 2 1 1 2 3 3 3 3 3 3 4 4 4
5 5 5 5 6 5 6 7 7 8 8 6 5 5 5 6 6 6 6 5 4 5 4 3 2 2 2 2 4 4 3 2 2 2 3 3 3 3
6 7 6 5 6 6 5 4 4 4 6 5 6 6 5 5 7 7 6 4 3 3 4 3 3 2 2 2 3 4 4 3 3 3 3 4 4 4
6 6 7 6 8 9 6 5 4 3 6 8 9 8 8 8 7 5 5 5 3 3 3 4 4 3 2 1 1 3 4 4 4 4 5 5 6 5
4 5 8 8 9 10 7 6 6 4 3 3 5 5 6 7 9 8 8 7 4 3 4 5 5 4 3 2 1 1 2 3 4 4 5 6 7 5
3 3 4 8 9 10 8 6 8 6 4 4 4 3 3 4 5 6 6 7 6 4 5 6 5 4 4 3 2 2 2 2 2 2 4 5 6 5
3 3 4 7 9 9 8 8 10 7 3 3 3 3 3 4 4 6 7 6 5 5 8 7 5 6 6 4 3 3 2 2 2 2 2 4 5 6
2 4 5 7 7 6 8 9 7 5 4 4 4 4 4 4 4 4 4 4 3 4 6 5 6 6 5 5 5 4 4 3 3 3 3 2 2 3
1 2 3 4 4 4 4 4 4 5 5 5 5 4 3 3 4 4 4 5 4 2 3 5 7 8 5 4 6 5 5 5 5 4 4 3 2 2
1 1 1 1 2 2 2 3 3 4 4 4 4 4 3 4 4 4 4 5 5 5 4 3 3 4 5 7 6 5 5 4 5 5 4 3 2 3
2 2 2 3 3 4 4 4 4 5 5 5 4 5 4 4 4 3 4 5 6 6 6 5 5 4 3 1 4 7 6 5 5 5 4 4 3 2
2 2 3 3 4 4 4 4 5 5 5 5 5 5 5 5 4 4 5 5 5 6 6 6 7 7 6 5 3 5 7 6 6 5 4 3 4 4
3 3 4 4 4 4 4 5 5 4 5 5 5 5 6 5 5 5 6 6 6 6 6 6 7 7 7 7 5 4 7 7 7 7 4 3 3 3
3 3 3 3 4 4 4 4 5 5 5 5 5 6 6 6 6 6 6 9 7 6 8 7 6 8 5 6 5 3 3 5 8 7 7 5 3 3
3 3 3 3 3 4 4 4 4 4 5 5 5 5 5 5 6 7 7 7 6 6 6 5 6 6 5 6 6 6 5 4 4 7 7 6 6 7
4 3 3 3 3 3 3 3 4 3 4 4 5 5 5 5 5 6 7 7 6 7 7 6 6 5 4 5 6 5 7 6 5 4 2 3 2 5
Wind_Direction
226 216 206 208 180 185 171 157 153 159 231 246 212 192 172 162 173 169 166 181 183 186 191 195 197 199 204 209 213 217 221 222 224 225 225 224 223 223
228 217 209 198 186 167 180 174 155 154 193 231 224 186 165 162 160 157 166 171 178 180 185 189 193 197 202 206 210 214 217 219 222 225 225 225 225 225
238 217 218 199 194 178 168 167 166 158 177 231 257 137 140 148 145 144 144 153 168 177 179 181 185 188 195 201 205 210 214 218 222 225 226 227 229 230
232 218 215 205 201 188 177 179 174 177 172 191 223 140 157 161 149 149 149 151 149 171 174 173 176 180 185 194 201 209 214 218 222 224 225 226 229 233
222 214 212 197 199 194 187 183 186 183 168 169 189 177 142 149 139 138 137 127 149 157 164 165 167 168 172 179 187 196 203 212 219 224 226 226 228 230
219 213 207 198 194 192 195 189 184 174 164 165 177 174 157 150 144 148 150 139 148 139 135 138 149 152 157 163 172 184 197 205 213 221 226 227 227 228
225 219 209 202 196 192 190 182 174 169 169 172 179 164 169 164 173 168 165 146 145 144 130 131 129 121 129 148 159 171 185 194 199 209 218 222 223 222
224 224 220 208 204 203 201 189 176 176 180 181 188 190 192 183 171 169 159 159 183 172 142 144 130 124 115 118 132 144 161 167 173 188 203 208 208 207
214 214 223 218 201 190 204 205 200 200 189 179 190 198 193 186 172 174 178 173 176 166 139 147 134 120 92 91 110 117 121 128 143 162 169 174 178 180
213 210 209 214 209 190 192 194 200 207 203 193 194 202 203 189 179 176 174 156 123 149 143 144 139 124 106 88 102 113 118 119 120 124 134 139 144 146
217 212 206 210 216 199 182 186 202 227 223 212 208 206 204 202 180 153 148 152 161 176 162 137 137 124 120 125 104 114 118 121 120 119 119 119 119 114
216 215 212 207 208 198 185 184 199 217 206 200 212 218 211 210 197 184 173 169 163 176 174 143 144 140 144 152 152 140 114 111 117 119 120 121 123 113
202 208 215 208 207 208 197 193 204 198 189 189 194 198 194 196 198 194 185 175 173 182 171 146 147 147 144 147 163 171 156 139 121 116 123 128 129 127
198 200 210 209 211 213 205 208 204 191 173 174 186 198 202 202 201 200 195 191 185 180 171 155 150 158 146 146 163 165 162 154 143 135 129 122 114 109
203 203 209 212 210 213 215 207 193 179 173 182 198 206 207 207 191 192 194 185 176 179 171 168 153 151 149 151 154 156 162 175 168 154 153 148 144 138
214 214 220 213 200 195 196 200 190 183 184 195 202 205 197 197 196 185 183 172 164 178 181 174 165 157 151 146 150 162 166 168 169 168 157 152 148 152
177 146 157 177 193 196 195 197 193 188 199 203 199 198 199 202 208 187 175 167 170 172 166 155 156 148 151 150 152 164 161 157 161 160 158 159 171 173
159 180 202 203 208 210 213 211 203 204 205 203 202 200 202 201 203 191 175 173 174 175 172 161 145 126 100 54 155 161 165 162 158 158 151 155 174 182
203 219 216 212 216 217 217 214 214 210 200 197 201 203 201 198 192 191 182 176 175 173 172 166 166 164 169 179 191 175 166 160 156 161 167 158 173 183
224 226 229 225 221 220 220 218 217 210 201 200 200 200 196 192 191 190 185 180 174 170 171 172 178 181 182 172 163 174 172 160 162 165 158 121 95 96
248 243 235 229 226 224 219 215 213 208 201 197 200 201 195 191 192 190 184 181 175 172 180 186 184 163 129 118 124 138 157 169 163 158 152 140 136 145
250 248 246 238 230 226 219 212 212 207 195 194 196 199 193 187 187 185 180 178 178 173 176 165 148 146 147 160 160 154 147 132 118 122 132 148 159 176
242 248 250 247 241 229 214 205 202 204 198 192 191 191 184 180 181 180 179 176 168 165 160 156 155 156 157 157 153 148 149 149 142 133 110 34 168 190